Terminal Aerodrome Forecast
Issued by NWS Cleveland, OH

Home | Current Version | Previous Version | Graphics & Text | Print | Product List | Glossary On
Versions: 1 2 3 4 5 6 7 8 9 10 11 12 13 14 15 16 17 18
465
FTUS41 KCLE 031503 AAB
TAFERI
TAF AMD
KERI 031503Z 0315/0412 00000KT P6SM SCT006 OVC010
     FM031800 01005KT P6SM BKN060
     FM040400 VRB03KT P6SM SCT250
     FM041000 VRB03KT P6SM BKN100=

USA.gov is the U.S. government's official web portal to all federal, state and local government web resources and services.